| time (UTC) | temp F | wind direction | speed knots | gust knots | rain 1hr in | rain 24hr in | rain mn in | humidity % | barometer mb |
| 20260507134557 | 54 | 65 | 4.3 | 9.6 | 0.00 | 0.00 | 0.00 | 80 | 1020.8 |
| 20260507133055 | 54 | 60 | 0.9 | 6.1 | 0.00 | 0.00 | 0.00 | 81 | 1020.8 |
| 20260507131601 | 54 | 0 | 0.9 | 7.0 | 0.00 | 0.00 | 0.00 | 81 | 1020.5 |
| 20260507130107 | 54 | 85 | 1.7 | 6.1 | 0.00 | 0.00 | 0.00 | 81 | 1020.5 |
| 20260507124555 | 53 | 0 | 0.9 | 6.1 | 0.00 | 0.00 | 0.00 | 83 | 1020.4 |
| 20260507123054 | 53 | 61 | 0.0 | 5.2 | 0.00 | 0.00 | 0.00 | 83 | 1020.5 |
| 20260507121605 | 53 | 78 | 2.6 | 8.7 | 0.00 | 0.00 | 0.00 | 82 | 1020.0 |
| 20260507120055 | 54 | 91 | 0.9 | 5.2 | 0.00 | 0.00 | 0.00 | 81 | 1020.1 |
| 20260507114609 | 54 | 48 | 2.6 | 7.0 | 0.00 | 0.00 | 0.00 | 80 | 1020.1 |
| 20260507113052 | 55 | 65 | 0.9 | 8.7 | 0.00 | 0.00 | 0.00 | 80 | 1019.7 |
| 20260507111556 | 55 | 0 | 0.9 | 4.3 | 0.00 | 0.00 | 0.00 | 81 | 1019.6 |
| 20260507110055 | 55 | 0 | 0.0 | 5.2 | 0.00 | 0.00 | 0.00 | 81 | 1019.5 |
| 20260507104552 | 55 | 150 | 0.9 | 7.0 | 0.00 | 0.00 | 0.00 | 81 | 1019.2 |
| 20260507103051 | 55 | 20 | 0.9 | 9.6 | 0.00 | 0.00 | 0.00 | 81 | 1019.2 |
| 20260507101603 | 55 | 57 | 0.9 | 9.6 | 0.00 | 0.00 | 0.00 | 80 | 1019.3 |
| 20260507100055 | 56 | 44 | 0.0 | 7.8 | 0.00 | 0.00 | 0.00 | 79 | 1019.7 |
| 20260507094551 | 56 | 46 | 0.9 | 4.3 | 0.00 | 0.00 | 0.00 | 79 | 1019.5 |
| 20260507093056 | 56 | 55 | 0.9 | 7.0 | 0.00 | 0.00 | 0.00 | 79 | 1019.2 |
| 20260507091559 | 56 | 70 | 1.7 | 7.0 | 0.00 | 0.00 | 0.00 | 78 | 1019.1 |
| 20260507090057 | 56 | 28 | 2.6 | 7.8 | 0.00 | 0.00 | 0.00 | 78 | 1019.0 |
| 20260507084556 | 56 | 81 | 1.7 | 7.8 | 0.00 | 0.00 | 0.00 | 77 | 1018.8 |
| 20260507083053 | 57 | 0 | 1.7 | 7.0 | 0.00 | 0.00 | 0.00 | 77 | 1018.7 |
| 20260507081555 | 57 | 56 | 0.9 | 3.5 | 0.00 | 0.00 | 0.00 | 77 | 1018.6 |
| 20260507080057 | 57 | 0 | 0.0 | 2.6 | 0.00 | 0.00 | 0.00 | 78 | 1018.5 |
| 20260507074609 | 57 | 49 | 0.0 | 3.5 | 0.00 | 0.00 | 0.00 | 77 | 1018.3 |
| 20260507073057 | 57 | 0 | 0.9 | 4.3 | 0.00 | 0.00 | 0.00 | 77 | 1017.9 |
| 20260507071554 | 57 | 57 | 0.9 | 3.5 | 0.00 | 0.00 | 0.00 | 76 | 1017.8 |
| 20260507070058 | 57 | 53 | 1.7 | 7.0 | 0.00 | 0.00 | 0.00 | 76 | 1017.8 |
| 20260507064557 | 58 | 5 | 0.9 | 2.6 | 0.00 | 0.00 | 0.00 | 76 | 1017.6 |
| 20260507063054 | 58 | 0 | 0.9 | 3.5 | 0.00 | 0.00 | 0.00 | 77 | 1017.2 |
| 20260507061601 | 58 | 51 | 0.9 | 6.1 | 0.00 | 0.00 | 0.00 | 78 | 1017.1 |
| 20260507060059 | 57 | 0 | 1.7 | 6.1 | 0.00 | 0.00 | 0.00 | 77 | 1017.1 |
| 20260507054636 | 58 | 57 | 0.9 | 4.3 | 0.00 | 0.00 | 0.00 | 77 | 1017.0 |
| 20260507053055 | 58 | 57 | 1.7 | 6.1 | 0.00 | 0.00 | 0.00 | 76 | 1017.2 |
| 20260507051552 | 59 | 49 | 1.7 | 7.8 | 0.00 | 0.00 | 0.00 | 76 | 1017.1 |
| 20260507050057 | 59 | 56 | 1.7 | 7.0 | 0.00 | 0.00 | 0.00 | 76 | 1016.8 |
| 20260507044602 | 60 | 61 | 2.6 | 7.0 | 0.00 | 0.00 | 0.00 | 74 | 1016.7 |
| 20260507043103 | 60 | 57 | 3.5 | 9.6 | 0.00 | 0.00 | 0.00 | 76 | 1016.5 |
| 20260507041602 | 61 | 44 | 1.7 | 4.3 | 0.00 | 0.00 | 0.00 | 78 | 1016.5 |
| 20260507040051 | 61 | 81 | 1.7 | 5.2 | 0.00 | 0.00 | 0.00 | 77 | 1016.2 |
| 20260507034600 | 62 | 71 | 1.7 | 4.3 | 0.00 | 0.00 | 0.00 | 76 | 1015.7 |
| 20260507033101 | 62 | 61 | 0.9 | 3.5 | 0.00 | 0.00 | 0.00 | 75 | 1015.4 |
| 20260507031605 | 63 | 0 | 0.0 | 3.5 | 0.00 | 0.00 | 0.00 | 74 | 1015.2 |
| 20260507030057 | 63 | 53 | 1.7 | 4.3 | 0.00 | 0.00 | 0.00 | 73 | 1015.0 |
| 20260507024553 | 64 | 67 | 0.9 | 3.5 | 0.00 | 0.00 | 0.00 | 71 | 1014.8 |
| 20260507023103 | 64 | 56 | 0.9 | 5.2 | 0.00 | 0.00 | 0.00 | 70 | 1014.7 |
| 20260507021554 | 64 | 78 | 1.7 | 3.5 | 0.00 | 0.00 | 0.00 | 69 | 1014.4 |
| 20260507020056 | 65 | 93 | 0.9 | 3.5 | 0.00 | 0.00 | 0.00 | 67 | 1014.4 |
| 20260507014605 | 67 | 69 | 1.7 | 4.3 | 0.00 | 0.00 | 0.00 | 64 | 1014.1 |
| 20260507013049 | 68 | 57 | 1.7 | 4.3 | 0.00 | 0.00 | 0.00 | 60 | 1014.0 |
| 20260507011552 | 69 | 67 | 1.7 | 6.1 | 0.00 | 0.00 | 0.00 | 60 | 1014.0 |
| 20260507010054 | 69 | 0 | 1.7 | 8.7 | 0.00 | 0.00 | 0.00 | 58 | 1013.8 |
| 20260507004555 | 70 | 67 | 0.0 | 8.7 | 0.00 | 0.00 | 0.00 | 59 | 1013.7 |
| 20260507003053 | 69 | 65 | 2.6 | 8.7 | 0.00 | 0.00 | 0.00 | 59 | 1013.5 |
| 20260507001603 | 70 | 63 | 2.6 | 7.0 | 0.00 | 0.00 | 0.00 | 58 | 1013.4 |
| 20260507000057 | 70 | 62 | 1.7 | 7.8 | 0.00 | 0.00 | 0.00 | 57 | 1013.5 |
| 20260506234550 | 70 | 63 | 1.7 | 5.2 | 0.00 | 0.00 | 0.00 | 59 | 1013.5 |
| 20260506233108 | 70 | 69 | 0.9 | 6.1 | 0.00 | 0.00 | 0.00 | 59 | 1013.4 |
| 20260506231556 | 70 | 24 | 0.9 | 7.0 | 0.00 | 0.00 | 0.00 | 57 | 1013.4 |
| 20260506230053 | 71 | 41 | 0.9 | 5.2 | 0.00 | 0.00 | 0.00 | 57 | 1013.3 |
| 20260506224550 | 71 | 121 | 0.0 | 0.0 | 0.00 | 0.00 | 0.00 | 58 | 1013.2 |
| 20260506223053 | 70 | 0 | 0.0 | 2.6 | 0.00 | 0.00 | 0.00 | 58 | 1013.1 |
| 20260506221559 | 71 | 63 | 1.7 | 4.3 | 0.00 | 0.00 | 0.00 | 57 | 1013.2 |
| 20260506220048 | 71 | 0 | 0.0 | 1.7 | 0.00 | 0.00 | 0.00 | 58 | 1013.1 |
| 20260506214552 | 71 | 0 | 0.0 | 0.0 | 0.00 | 0.00 | 0.00 | 56 | 1013.0 |
| 20260506213102 | 70 | 49 | 0.0 | 3.5 | 0.00 | 0.00 | 0.00 | 59 | 1013.4 |
| 20260506211550 | 71 | 0 | 0.0 | 0.0 | 0.00 | 0.00 | 0.00 | 58 | 1013.3 |
| 20260506210054 | 70 | 0 | 0.0 | 6.1 | 0.00 | 0.00 | 0.00 | 59 | 1013.2 |
| 20260506204551 | 69 | 0 | 0.0 | 0.0 | 0.00 | 0.00 | 0.00 | 62 | 1013.6 |
| 20260506203046 | 68 | 0 | 0.0 | 0.0 | 0.00 | 0.00 | 0.00 | 63 | 1013.9 |
| 20260506201547 | 67 | 0 | 0.0 | 0.0 | 0.00 | 0.00 | 0.00 | 64 | 1014.4 |
| 20260506200051 | 66 | 0 | 0.0 | 5.2 | 0.00 | 0.00 | 0.00 | 65 | 1014.7 |
| 20260506194616 | 65 | 71 | 1.7 | 7.8 | 0.00 | 0.00 | 0.00 | 68 | 1014.8 |
| 20260506193102 | 64 | 70 | 0.9 | 5.2 | 0.00 | 0.00 | 0.00 | 70 | 1014.9 |
| 20260506191554 | 62 | 57 | 1.7 | 7.8 | 0.00 | 0.00 | 0.00 | 70 | 1015.0 |
| 20260506190052 | 62 | 0 | 1.7 | 7.8 | 0.00 | 0.00 | 0.00 | 72 | 1015.2 |
| 20260506184547 | 61 | 96 | 1.7 | 6.1 | 0.00 | 0.00 | 0.00 | 71 | 1015.2 |
| 20260506183054 | 62 | 68 | 0.9 | 7.8 | 0.00 | 0.00 | 0.00 | 72 | 1015.5 |
| 20260506181549 | 61 | 50 | 0.9 | 7.8 | 0.00 | 0.00 | 0.00 | 73 | 1015.7 |
| 20260506174555 | 61 | 35 | 1.7 | 8.7 | 0.00 | 0.00 | 0.00 | 71 | 1015.8 |
| 20260506173057 | 61 | 54 | 0.9 | 6.1 | 0.00 | 0.00 | 0.00 | 71 | 1015.9 |
| 20260506171553 | 61 | 13 | 0.9 | 6.1 | 0.00 | 0.00 | 0.00 | 70 | 1015.9 |
| 20260506170105 | 61 | 78 | 0.9 | 7.8 | 0.00 | 0.00 | 0.00 | 72 | 1015.7 |
| 20260506164557 | 60 | 17 | 0.0 | 4.3 | 0.00 | 0.00 | 0.00 | 74 | 1015.7 |
| 20260506163112 | 59 | 0 | 0.9 | 5.2 | 0.00 | 0.00 | 0.00 | 76 | 1015.5 |
| 20260506161551 | 58 | 5 | 0.9 | 4.3 | 0.00 | 0.00 | 0.00 | 76 | 1015.4 |
| 20260506160050 | 57 | 48 | 0.9 | 3.5 | 0.00 | 0.00 | 0.00 | 78 | 1015.3 |
| 20260506154609 | 57 | 5 | 0.0 | 2.6 | 0.00 | 0.00 | 0.00 | 77 | 1015.1 |
| 20260506153058 | 56 | 19 | 0.0 | 2.6 | 0.00 | 0.00 | 0.00 | 78 | 1015.1 |
| 20260506151549 | 56 | 0 | 0.0 | 3.5 | 0.00 | 0.00 | 0.00 | 79 | 1014.9 |
| 20260506150051 | 56 | 0 | 0.0 | 1.7 | 0.00 | 0.00 | 0.00 | 82 | 1014.4 |
| 20260506144551 | 55 | 348 | 0.0 | 3.5 | 0.00 | 0.00 | 0.00 | 83 | 1014.7 |
| 20260506143104 | 54 | 305 | 0.0 | 2.6 | 0.00 | 0.00 | 0.00 | 84 | 1014.5 |
| 20260506141553 | 54 | 0 | 0.9 | 6.1 | 0.00 | 0.00 | 0.00 | 86 | 1014.3 |
| 20260506140057 | 53 | 17 | 0.9 | 5.2 | 0.00 | 0.00 | 0.00 | 86 | 1014.1 |